nws-alerts: Checking more than four warning/county codes can delay the loading of your pages. You should use a cron job to get the data.
EllijayWeather Station Historical Data
Daily Summary for December 15, 2018 Units:  English    Metric   Both
Daily Weekly Monthly Yearly Custom
  High: Low: Average:
Temperature: 64.4 °F -10.5 °F 48.1 °F
Dew Point: 54 °F -30.1 °F 23.1 °F
Humidity: 69% % 37%
Wind Speed: 2mph 0mph 0mph
Wind Gust: 6mph - -
Wind- - SE
Pressure: 30.08 in 29.90 in -
Precipitation: 0.27 in    
Historical Graphs
 
 
Tabular Data for December 15, 2018
Time Temperature Dew Point Pressure Wind Wind Speed Wind Gust Humidity Rainfall Rate (Hourly) solar
00:04 53.1 °F 27.5 °F 29.95 in Calm   4 mph 37% 0 in meteobridge W/m2
00:09 52.9 °F 27.3 °F 29.94 in Calm   5 mph 37% 0 in meteobridge W/m2
00:14 52.9 °F 27.3 °F 29.94 in Calm     37% 0 in meteobridge W/m2
00:19 52.9 °F 27.3 °F 29.92 in Calm   1 mph 37% 0 in meteobridge W/m2
00:24 52.7 °F 27.9 °F 29.91 in Calm   2 mph 38% 0 in meteobridge W/m2
00:29 52.7 °F 27.9 °F 29.94 in SSE 0.9 mph 6 mph 38% 0 in meteobridge W/m2
00:34 52.5 °F 27.7 °F 29.94 in Calm   4 mph 38% 0 in meteobridge W/m2
00:39 52.5 °F 27.7 °F 29.92 in Calm   2 mph 38% 0 in meteobridge W/m2
00:44 52.5 °F 27.7 °F 29.93 in SE 0.9 mph 4 mph 38% 0 in meteobridge W/m2
00:49 52.5 °F 27.7 °F 29.93 in Calm   6 mph 38% 0 in meteobridge W/m2
00:54 52.3 °F 28 °F 29.91 in Calm   2 mph 39% 0 in meteobridge W/m2
00:59 52.3 °F 28 °F 29.91 in Calm     39% 0 in meteobridge W/m2
01:04 52.3 °F 28 °F 29.92 in Calm     39% 0 in meteobridge W/m2
01:09 52.3 °F 28 °F 29.93 in Calm     39% 0 in meteobridge W/m2
01:14 52.2 °F 27.9 °F 29.92 in Calm     39% 0 in meteobridge W/m2
01:19 52.2 °F 27.9 °F 29.91 in Calm     39% 0 in meteobridge W/m2
01:24 52 °F 27.9 °F 29.90 in Calm     39% 0 in meteobridge W/m2
01:29 52 °F 27.1 °F 29.91 in SSE 2 mph 2 mph 38% 0 in meteobridge W/m2
01:34 52 °F 27.1 °F 29.92 in Calm     38% 0 in meteobridge W/m2
01:39 52 °F 27.1 °F 29.93 in Calm   1 mph 38% 0 in meteobridge W/m2
01:44 52 °F 27.1 °F 29.92 in Calm     38% 0 in meteobridge W/m2
01:49 52.2 °F 26.6 °F 29.93 in SSE 0.9 mph 1 mph 37% 0 in meteobridge W/m2
01:54 52.2 °F 26.6 °F 29.93 in Calm   5 mph 37% 0 in meteobridge W/m2
01:59 52.3 °F 26.8 °F 29.91 in Calm   4 mph 37% 0 in meteobridge W/m2
02:04 52.5 °F 27 °F 29.91 in Calm   2 mph 37% 0 in meteobridge W/m2
02:09 52.5 °F 27.7 °F 29.91 in Calm   4 mph 38% 0 in meteobridge W/m2
02:14 52.5 °F 27.7 °F 29.91 in Calm     38% 0 in meteobridge W/m2
02:19 52.5 °F 27.7 °F 29.93 in Calm   2 mph 38% 0 in meteobridge W/m2
02:24 52.3 °F 27.5 °F 29.93 in Calm   2 mph 38% 0 in meteobridge W/m2
02:29 52.3 °F 27.5 °F 29.91 in Calm     38% 0 in meteobridge W/m2
02:34 52.3 °F 27.5 °F 29.93 in Calm   2 mph 38% 0 in meteobridge W/m2
02:39 52.3 °F 28 °F 29.93 in Calm     39% 0 in meteobridge W/m2
02:44 52.3 °F 28 °F 29.93 in Calm     39% 0 in meteobridge W/m2
02:49 52.2 °F 27.9 °F 29.93 in Calm     39% 0 in meteobridge W/m2
02:54 52.2 °F 27.9 °F 29.92 in Calm     39% 0 in meteobridge W/m2
02:59 52.2 °F 27.9 °F 29.93 in Calm     39% 0 in meteobridge W/m2
03:04 52 °F 27.9 °F 29.93 in Calm     39% 0 in meteobridge W/m2
03:09 52 °F 27.1 °F 29.92 in Calm     38% 0 in meteobridge W/m2
03:14 52 °F 27.1 °F 29.92 in Calm     38% 0 in meteobridge W/m2
03:19 52 °F 27.1 °F 29.93 in Calm     38% 0 in meteobridge W/m2
03:24 51.8 °F 27 °F 29.94 in Calm     38% 0 in meteobridge W/m2
03:29 51.8 °F 27 °F 29.94 in Calm     38% 0 in meteobridge W/m2
03:34 51.6 °F 26.8 °F 29.94 in Calm     38% 0 in meteobridge W/m2
03:39 51.6 °F 26.2 °F 29.93 in Calm     37% 0.01 in meteobridge W/m2
03:44 51.6 °F 26.2 °F 29.94 in Calm     37% 0.01 in meteobridge W/m2
03:49 51.6 °F 26.2 °F 29.93 in Calm     37% 0.01 in meteobridge W/m2
03:54 51.6 °F 26.2 °F 29.93 in Calm     37% 0.01 in meteobridge W/m2
03:59 51.4 °F 26.1 °F 29.93 in Calm     37% 0.01 in meteobridge W/m2
04:04 51.4 °F 26.1 °F 29.93 in Calm     37% 0.01 in meteobridge W/m2
04:09 51.4 °F 26.1 °F 29.93 in Calm     37% 0.01 in meteobridge W/m2
04:14 51.4 °F 26.1 °F 29.93 in Calm     37% 0.01 in meteobridge W/m2
04:19 51.3 °F 25.9 °F 29.93 in Calm     37% 0.01 in meteobridge W/m2
04:24 51.3 °F 25.9 °F 29.92 in Calm     37% 0.01 in meteobridge W/m2
04:29 51.3 °F 25.9 °F 29.92 in Calm     37% 0.01 in meteobridge W/m2
04:34 51.3 °F 25.9 °F 29.92 in Calm     37% 0.01 in meteobridge W/m2
04:39 51.1 °F 25.7 °F 29.93 in Calm     37% 0 in meteobridge W/m2
04:44 51.1 °F 25.7 °F 29.92 in ESE 0.9 mph 1 mph 37% 0 in meteobridge W/m2
04:49 51.1 °F 25.7 °F 29.92 in Calm   1 mph 37% 0 in meteobridge W/m2
04:54 51.1 °F 25.7 °F 29.92 in Calm     37% 0 in meteobridge W/m2
04:59 51.1 °F 25.7 °F 29.91 in Calm     37% 0 in meteobridge W/m2
05:04 50.9 °F 25.5 °F 29.91 in Calm     37% 0 in meteobridge W/m2
05:09 50.7 °F 25.3 °F 29.91 in Calm     37% 0 in meteobridge W/m2
05:14 50.5 °F 25.2 °F 29.92 in Calm     37% 0 in meteobridge W/m2
05:19 50.5 °F 25.2 °F 29.92 in Calm     37% 0 in meteobridge W/m2
05:24 50.5 °F 25.2 °F 29.91 in Calm     37% 0 in meteobridge W/m2
05:29 50.4 °F 25 °F 29.92 in Calm     37% 0 in meteobridge W/m2
05:34 50.4 °F 25 °F 29.92 in Calm     37% 0 in meteobridge W/m2
05:39 50.4 °F 25 °F 29.93 in Calm     37% 0 in meteobridge W/m2
05:44 50.4 °F 25 °F 29.93 in Calm     37% 0 in meteobridge W/m2
05:49 50.4 °F 25 °F 29.93 in Calm     37% 0 in meteobridge W/m2
05:54 50.4 °F 25 °F 29.93 in Calm     37% 0 in meteobridge W/m2
05:59 50.4 °F 25 °F 29.93 in Calm     37% 0 in meteobridge W/m2
06:04 50.4 °F 25 °F 29.93 in Calm     37% 0 in meteobridge W/m2
06:09 50.4 °F 25 °F 29.93 in Calm     37% 0.01 in meteobridge W/m2
06:14 50.4 °F 25 °F 29.93 in Calm     37% 0.01 in meteobridge W/m2
06:19 50.5 °F 25.2 °F 29.93 in Calm     37% 0.01 in meteobridge W/m2
06:24 50.4 °F 25 °F 29.92 in Calm     37% 0.01 in meteobridge W/m2
06:29 50.5 °F 25.2 °F 29.93 in Calm   1 mph 37% 0.01 in meteobridge W/m2
06:34 50.5 °F 25.2 °F 29.93 in Calm     37% 0.01 in meteobridge W/m2
06:39 50.5 °F 25.2 °F 29.93 in Calm     37% 0.02 in meteobridge W/m2
06:44 50.5 °F 25.2 °F 29.94 in Calm     37% 0.02 in meteobridge W/m2
06:49 50.5 °F 25.2 °F 29.93 in Calm     37% 0.02 in meteobridge W/m2
06:54 50.5 °F 25.2 °F 29.94 in Calm     37% 0.03 in meteobridge W/m2
06:59 50.5 °F 25.2 °F 29.94 in Calm     37% 0.03 in meteobridge W/m2
07:04 50.4 °F 24.4 °F 29.93 in Calm     36% 0.03 in meteobridge W/m2
07:09 50.4 °F 24.4 °F 29.94 in Calm     36% 0.02 in meteobridge W/m2
07:14 50.4 °F 24.4 °F 29.93 in Calm     36% 0.02 in meteobridge W/m2
07:19 50.4 °F 24.4 °F 29.93 in Calm     36% 0.02 in meteobridge W/m2
07:24 50.4 °F 24.4 °F 29.93 in Calm     36% 0.02 in meteobridge W/m2
07:29 50.4 °F 24.4 °F 29.93 in Calm     36% 0.02 in meteobridge W/m2
07:34 50.4 °F 24.4 °F 29.93 in Calm     36% 0.02 in meteobridge W/m2
07:39 50.2 °F 25 °F 29.94 in Calm     37% 0.01 in meteobridge W/m2
07:44 50.2 °F 25 °F 29.94 in Calm     37% 0.01 in meteobridge W/m2
07:49 50.2 °F 25 °F 29.94 in Calm     37% 0.01 in meteobridge W/m2
07:54 50.2 °F 25 °F 29.94 in Calm     37% 0 in meteobridge W/m2
07:59 50.2 °F 25 °F 29.95 in Calm     37% 0 in meteobridge W/m2
08:04 50.2 °F 25 °F 29.95 in Calm     37% 0 in meteobridge W/m2
08:09 50.2 °F 24.3 °F 29.95 in Calm     36% 0 in meteobridge W/m2
08:14 50.2 °F 24.3 °F 29.95 in Calm     36% 0 in meteobridge W/m2
08:19 50.2 °F 24.3 °F 29.95 in Calm     36% 0 in meteobridge W/m2
08:24 50.2 °F 24.3 °F 29.95 in Calm     36% 0.01 in meteobridge W/m2
08:29 50.2 °F 24.3 °F 29.95 in Calm     36% 0.01 in meteobridge W/m2
08:34 50.2 °F 24.3 °F 29.95 in Calm     36% 0.01 in meteobridge W/m2
08:39 50.2 °F 24.3 °F 29.95 in Calm     36% 0.01 in meteobridge W/m2
08:44 50.4 °F 24.4 °F 29.96 in Calm     36% 0.01 in meteobridge W/m2
08:49 50.4 °F 24.4 °F 29.95 in Calm     36% 0.01 in meteobridge W/m2
08:54 50.4 °F 24.4 °F 29.95 in Calm     36% 0.01 in meteobridge W/m2
08:59 50.5 °F 24.6 °F 29.96 in Calm     36% 0.01 in meteobridge W/m2
09:04 50.5 °F 24.6 °F 29.96 in Calm     36% 0.01 in meteobridge W/m2
09:09 50.5 °F 24.6 °F 29.96 in Calm     36% 0.01 in meteobridge W/m2
09:14 50.5 °F 24.6 °F 29.96 in Calm     36% 0.01 in meteobridge W/m2
09:19 50.5 °F 24.6 °F 29.96 in Calm     36% 0.01 in meteobridge W/m2
09:24 50.4 °F 24.4 °F 29.96 in Calm     36% 0 in meteobridge W/m2
09:29 50.2 °F 24.3 °F 29.96 in Calm     36% 0 in meteobridge W/m2
09:34 50.2 °F 24.3 °F 29.96 in Calm     36% 0 in meteobridge W/m2
09:39 50.2 °F 24.3 °F 29.96 in Calm     36% 0 in meteobridge W/m2
09:44 50.5 °F 24.6 °F 29.96 in Calm     36% 0 in meteobridge W/m2
09:49 -10.5 °F -30.1 °F 29.95 in Calm     36% 0.01 in meteobridge W/m2
09:54 -10.5 °F -30.1 °F 29.95 in Calm     36% 0.01 in meteobridge W/m2
09:59 0.00 °F 0.00 °F 29.95 in Calm     % 0.01 in meteobridge W/m2
10:04 0.00 °F 0.00 °F 29.95 in Calm     % 0.02 in meteobridge W/m2
10:09 64.4 °F 54 °F 29.95 in Calm     69% 0.15 in meteobridge W/m2
10:14 61.2 °F 50.9 °F 29.95 in South 0.9 mph 1 mph 69% 0.15 in meteobridge W/m2
10:19 57.6 °F 47.5 °F 29.96 in Calm     69% 0.17 in meteobridge W/m2
10:24 54.9 °F 44.1 °F 29.96 in Calm     67% 0.17 in meteobridge W/m2
10:29 52.9 °F 40.3 °F 29.96 in Calm   1 mph 62% 0.17 in meteobridge W/m2
10:34 51.6 °F 36 °F 29.96 in Calm     55% 0.17 in meteobridge W/m2
10:39 50.7 °F 30.7 °F 29.96 in Calm     46% 0.17 in meteobridge W/m2
10:44 50.2 °F 28 °F 29.96 in Calm   1 mph 42% 0.17 in meteobridge W/m2
10:49 49.8 °F 25.9 °F 29.96 in SE 0.9 mph 4 mph 39% 0.16 in meteobridge W/m2
10:54 49.5 °F 25 °F 29.96 in East 2 mph 2 mph 38% 0.16 in meteobridge W/m2
10:59 49.5 °F 24.3 °F 29.96 in Calm     37% 0.16 in meteobridge W/m2
11:04 49.5 °F 23.5 °F 29.96 in Calm   3 mph 36% 0.15 in meteobridge W/m2
11:09 49.6 °F 23.2 °F 29.96 in Calm     35% 0.02 in meteobridge W/m2
11:14 49.3 °F 22.8 °F 29.96 in Calm   2 mph 35% 0.02 in meteobridge W/m2
11:19 48.4 °F 23.9 °F 29.96 in Calm   1 mph 38% 0 in meteobridge W/m2
11:24 47.7 °F 23.9 °F 29.96 in Calm   1 mph 39% 0.01 in meteobridge W/m2
11:29 46.9 °F 23.9 °F 29.96 in Calm     40% 0.01 in meteobridge W/m2
11:34 46.6 °F 23 °F 29.97 in Calm     39% 0.01 in meteobridge W/m2
11:39 46.4 °F 22.1 °F 29.97 in Calm     38% 0.01 in meteobridge W/m2
11:44 46.2 °F 21.4 °F 29.97 in Calm     37% 0.01 in meteobridge W/m2
11:49 46.2 °F 20.7 °F 29.97 in Calm     36% 0.01 in meteobridge W/m2
11:54 46.6 °F 20.3 °F 29.97 in Calm     35% 0.01 in meteobridge W/m2
11:59 46.6 °F 19.8 °F 29.97 in Calm     34% 0.01 in meteobridge W/m2
12:04 46.6 °F 19.8 °F 29.96 in Calm     34% 0.01 in meteobridge W/m2
12:09 46.6 °F 19.8 °F 29.96 in Calm     34% 0.01 in meteobridge W/m2
12:14 46.8 °F 19.9 °F 29.96 in Calm     34% 0.01 in meteobridge W/m2
12:19 46.9 °F 19.4 °F 29.96 in Calm     33% 0.01 in meteobridge W/m2
12:24 46.9 °F 19.4 °F 29.96 in Calm     33% 0 in meteobridge W/m2
12:29 47.1 °F 18.7 °F 29.95 in Calm     32% 0 in meteobridge W/m2
12:34 47.5 °F 19 °F 29.95 in Calm     32% 0 in meteobridge W/m2
12:39 47.7 °F 19.2 °F 29.95 in Calm     32% 0 in meteobridge W/m2
12:44 47.7 °F 19.2 °F 29.95 in Calm     32% 0 in meteobridge W/m2
12:49 47.7 °F 19.2 °F 29.96 in Calm     32% 0 in meteobridge W/m2
12:54 47.7 °F 19.2 °F 29.95 in Calm     32% 0 in meteobridge W/m2
12:59 47.7 °F 19.2 °F 29.95 in Calm   2 mph 32% 0 in meteobridge W/m2
13:04 47.7 °F 19.2 °F 29.95 in Calm     32% 0 in meteobridge W/m2
13:09 47.7 °F 19.2 °F 29.95 in Calm     32% 0 in meteobridge W/m2
13:14 47.8 °F 19.4 °F 29.94 in Calm     32% 0 in meteobridge W/m2
13:19 48 °F 19.6 °F 29.94 in Calm     32% 0 in meteobridge W/m2
13:24 48.4 °F 19.9 °F 29.95 in Calm     32% 0 in meteobridge W/m2
13:29 48.4 °F 19.9 °F 29.95 in Calm     32% 0 in meteobridge W/m2
13:34 48.4 °F 19.9 °F 29.95 in Calm     32% 0 in meteobridge W/m2
13:39 48.4 °F 20.7 °F 29.94 in Calm     33% 0 in meteobridge W/m2
13:44 48.4 °F 20.7 °F 29.94 in Calm     33% 0 in meteobridge W/m2
13:49 48.2 °F 21.2 °F 29.94 in Calm     34% 0 in meteobridge W/m2
13:54 48.2 °F 21.2 °F 29.95 in Calm     34% 0 in meteobridge W/m2
13:59 48.4 °F 20.7 °F 29.95 in Calm     33% 0 in meteobridge W/m2
14:04 48.6 °F 19.9 °F 29.95 in Calm     32% 0 in meteobridge W/m2
14:09 48.7 °F 20.8 °F 29.95 in Calm   2 mph 33% 0 in meteobridge W/m2
14:14 48.6 °F 22.8 °F 29.95 in Calm     36% 0 in meteobridge W/m2
14:19 48.6 °F 23.5 °F 29.95 in Calm     37% 0 in meteobridge W/m2
14:24 48.6 °F 25.3 °F 29.95 in Calm     40% 0 in meteobridge W/m2
14:29 48.6 °F 26.4 °F 29.95 in Calm     42% 0 in meteobridge W/m2
14:34 48.6 °F 26.4 °F 29.95 in NNE 0.9 mph 2 mph 42% 0 in meteobridge W/m2
14:39 48.7 °F 26.6 °F 29.95 in Calm     42% 0 in meteobridge W/m2
14:44 48.9 °F 26.8 °F 29.95 in Calm     42% 0 in meteobridge W/m2
14:49 48.9 °F 30 °F 29.95 in Calm     48% 0 in meteobridge W/m2
14:54 49.3 °F 30.9 °F 29.95 in Calm   1 mph 49% 0 in meteobridge W/m2
14:59 49.5 °F 32 °F 29.95 in Calm     51% 0 in meteobridge W/m2
15:04 49.6 °F 34.2 °F 29.95 in Calm     55% 0 in meteobridge W/m2
15:09 49.6 °F 35.1 °F 29.95 in Calm     57% 0 in meteobridge W/m2
15:14 49.8 °F 33.4 °F 29.95 in Calm     53% 0 in meteobridge W/m2
15:19 49.6 °F 35.4 °F 29.95 in Calm     58% 0 in meteobridge W/m2
15:24 49.5 °F 34.3 °F 29.96 in Calm     56% 0 in meteobridge W/m2
15:29 49.3 °F 36 °F 29.96 in Calm   2 mph 60% 0 in meteobridge W/m2
15:34 48.9 °F 35.6 °F 29.96 in Calm   1 mph 60% 0 in meteobridge W/m2
15:39 48.7 °F 33.8 °F 29.96 in Calm     56% 0 in meteobridge W/m2
15:44 48.4 °F 31.1 °F 29.96 in Calm     51% 0.01 in meteobridge W/m2
15:49 48.2 °F 29.5 °F 29.96 in Calm     48% 0.01 in meteobridge W/m2
15:54 48 °F 28.2 °F 29.96 in Calm     46% 0.01 in meteobridge W/m2
15:59 47.8 °F 27.5 °F 29.97 in Calm     45% 0.01 in meteobridge W/m2
16:04 47.8 °F 26.4 °F 29.97 in Calm     43% 0.01 in meteobridge W/m2
16:09 47.8 °F 25.9 °F 29.97 in Calm     42% 0.01 in meteobridge W/m2
16:14 47.8 °F 25.3 °F 29.97 in Calm     41% 0.01 in meteobridge W/m2
16:19 47.8 °F 24.6 °F 29.97 in Calm     40% 0.01 in meteobridge W/m2
16:24 47.8 °F 24.1 °F 29.97 in Calm     39% 0.01 in meteobridge W/m2
16:29 47.8 °F 22.8 °F 29.98 in Calm     37% 0.01 in meteobridge W/m2
16:34 47.8 °F 23.5 °F 29.98 in Calm     38% 0.01 in meteobridge W/m2
16:39 47.7 °F 22.6 °F 29.98 in Calm     37% 0.01 in meteobridge W/m2
16:44 47.7 °F 22.6 °F 29.98 in Calm     37% 0 in meteobridge W/m2
16:49 47.5 °F 22.5 °F 29.98 in Calm     37% 0 in meteobridge W/m2
16:54 47.1 °F 22.8 °F 29.98 in Calm     38% 0.01 in meteobridge W/m2
16:59 46.9 °F 22.6 °F 29.98 in Calm     38% 0.01 in meteobridge W/m2
17:04 46.8 °F 21.9 °F 29.99 in Calm     37% 0.01 in meteobridge W/m2
17:05 46.8 °F 21.9 °F 29.98 in Calm     37% 0.01 in meteobridge W/m2
17:19 46.4 °F 20.8 °F 29.99 in Calm     36% 0 in meteobridge W/m2
17:24 46.4 °F 20.8 °F 29.99 in Calm     36% 0 in meteobridge W/m2
17:29 46.2 °F 20.7 °F 29.99 in Calm     36% 0 in meteobridge W/m2
17:34 46.2 °F 20.1 °F 29.99 in Calm     35% 0 in meteobridge W/m2
17:39 46 °F 19.9 °F 29.99 in Calm     35% 0 in meteobridge W/m2
17:44 46 °F 19.9 °F 30.00 in Calm     35% 0 in meteobridge W/m2
17:49 46 °F 19.9 °F 30.00 in Calm     35% 0 in meteobridge W/m2
17:54 45.9 °F 19.8 °F 30.00 in Calm     35% 0 in meteobridge W/m2
17:59 45.9 °F 19 °F 30.00 in Calm     34% 0 in meteobridge W/m2
18:04 45.9 °F 19 °F 30.00 in Calm     34% 0 in meteobridge W/m2
18:09 45.9 °F 19 °F 30.00 in Calm     34% 0 in meteobridge W/m2
18:14 45.7 °F 18.9 °F 30.00 in Calm     34% 0 in meteobridge W/m2
18:19 45.7 °F 18.9 °F 30.00 in Calm     34% 0 in meteobridge W/m2
18:24 45.7 °F 18.9 °F 30.00 in Calm     34% 0 in meteobridge W/m2
18:29 45.5 °F 18.7 °F 30.01 in Calm     34% 0 in meteobridge W/m2
18:34 45.5 °F 18.7 °F 30.01 in Calm     34% 0 in meteobridge W/m2
18:39 45.5 °F 18.7 °F 30.01 in Calm     34% 0 in meteobridge W/m2
18:44 45.5 °F 18.7 °F 30.01 in Calm     34% 0 in meteobridge W/m2
18:49 45.5 °F 18.7 °F 30.01 in Calm     34% 0 in meteobridge W/m2
18:54 45.5 °F 18.1 °F 30.02 in Calm     33% 0 in meteobridge W/m2
18:59 45.5 °F 18.1 °F 30.01 in Calm     33% 0 in meteobridge W/m2
19:04 45.3 °F 18 °F 30.02 in Calm     33% 0 in meteobridge W/m2
19:09 45.3 °F 18 °F 30.02 in Calm     33% 0 in meteobridge W/m2
19:14 45.3 °F 18 °F 30.02 in Calm     33% 0 in meteobridge W/m2
19:19 45.3 °F 18 °F 30.01 in Calm     33% 0 in meteobridge W/m2
19:24 45.3 °F 18 °F 30.02 in Calm     33% 0 in meteobridge W/m2
19:29 45.3 °F 18 °F 30.02 in Calm     33% 0 in meteobridge W/m2
19:34 45.3 °F 18 °F 30.03 in Calm     33% 0 in meteobridge W/m2
19:39 45.3 °F 18 °F 30.03 in Calm     33% 0 in meteobridge W/m2
19:44 45.3 °F 18 °F 30.03 in Calm     33% 0 in meteobridge W/m2
19:49 45.3 °F 18 °F 30.03 in Calm     33% 0 in meteobridge W/m2
19:54 45.3 °F 18 °F 30.03 in Calm     33% 0 in meteobridge W/m2
19:59 45.3 °F 18 °F 30.03 in Calm     33% 0 in meteobridge W/m2
20:04 45.3 °F 18 °F 30.03 in Calm     33% 0 in meteobridge W/m2
20:09 45.5 °F 18.1 °F 30.04 in Calm     33% 0 in meteobridge W/m2
20:14 45.5 °F 18.1 °F 30.04 in Calm     33% 0.01 in meteobridge W/m2
20:19 45.5 °F 18.1 °F 30.04 in Calm     33% 0.01 in meteobridge W/m2
20:24 45.7 °F 18.1 °F 30.04 in Calm     33% 0.01 in meteobridge W/m2
20:29 45.7 °F 18.1 °F 30.04 in Calm   2 mph 33% 0.01 in meteobridge W/m2
20:34 45.7 °F 18.1 °F 30.04 in Calm     33% 0.01 in meteobridge W/m2
20:39 45.7 °F 18.1 °F 30.05 in Calm     33% 0.01 in meteobridge W/m2
20:44 45.7 °F 18.1 °F 30.05 in Calm   1 mph 33% 0.01 in meteobridge W/m2
20:49 45.7 °F 18.1 °F 30.05 in Calm   3 mph 33% 0.01 in meteobridge W/m2
20:54 45.7 °F 18.1 °F 30.05 in Calm   2 mph 33% 0.01 in meteobridge W/m2
20:59 45.7 °F 18.1 °F 30.05 in Calm     33% 0.01 in meteobridge W/m2
21:04 45.7 °F 18.1 °F 30.05 in Calm     33% 0.01 in meteobridge W/m2
21:09 45.5 °F 18.1 °F 30.05 in Calm     33% 0.01 in meteobridge W/m2
21:14 45.5 °F 18.1 °F 30.05 in Calm     33% 0 in meteobridge W/m2
21:19 45.5 °F 18.1 °F 30.05 in Calm     33% 0 in meteobridge W/m2
21:24 45.5 °F 18.1 °F 30.05 in Calm   4 mph 33% 0 in meteobridge W/m2
21:29 45.5 °F 18.1 °F 30.05 in Calm     33% 0 in meteobridge W/m2
21:34 45.3 °F 18 °F 30.05 in Calm     33% 0 in meteobridge W/m2
21:39 45.3 °F 18 °F 30.06 in Calm     33% 0 in meteobridge W/m2
21:44 45.3 °F 18 °F 30.06 in Calm     33% 0 in meteobridge W/m2
21:49 45.3 °F 18 °F 30.06 in Calm     33% 0 in meteobridge W/m2
21:54 45.3 °F 18 °F 30.06 in Calm     33% 0 in meteobridge W/m2
21:59 45.3 °F 18 °F 30.07 in Calm     33% 0 in meteobridge W/m2
22:04 45.3 °F 18 °F 30.07 in Calm     33% 0 in meteobridge W/m2
22:09 45.3 °F 18 °F 30.06 in Calm     33% 0 in meteobridge W/m2
22:14 45.3 °F 18 °F 30.07 in Calm     33% 0 in meteobridge W/m2
22:19 45.3 °F 18 °F 30.06 in Calm     33% 0 in meteobridge W/m2
22:24 45.3 °F 18 °F 30.07 in Calm     33% 0 in meteobridge W/m2
22:29 45.3 °F 18 °F 30.07 in Calm     33% 0 in meteobridge W/m2
22:34 45.3 °F 18 °F 30.08 in Calm   2 mph 33% 0 in meteobridge W/m2
22:39 45.3 °F 18 °F 30.08 in Calm     33% 0 in meteobridge W/m2
22:44 45.3 °F 18 °F 30.07 in Calm     33% 0 in meteobridge W/m2
22:49 45.3 °F 18 °F 30.07 in Calm     33% 0 in meteobridge W/m2
22:54 45.3 °F 18 °F 30.07 in Calm     33% 0 in meteobridge W/m2
22:59 45.3 °F 18 °F 30.07 in Calm     33% 0 in meteobridge W/m2
23:04 45.3 °F 18 °F 30.07 in Calm   2 mph 33% 0 in meteobridge W/m2
23:09 45.3 °F 18 °F 30.07 in Calm     33% 0 in meteobridge W/m2
23:14 45.3 °F 18 °F 30.07 in Calm     33% 0 in meteobridge W/m2
23:19 45.1 °F 17.8 °F 30.07 in Calm     33% 0 in meteobridge W/m2
23:24 45.1 °F 17.8 °F 30.07 in Calm     33% 0 in meteobridge W/m2
23:29 45.1 °F 17.8 °F 30.07 in Calm     33% 0 in meteobridge W/m2
23:34 45 °F 17.6 °F 30.07 in Calm     33% 0 in meteobridge W/m2
23:39 45 °F 17.6 °F 30.07 in Calm   1 mph 33% 0 in meteobridge W/m2
23:44 45 °F 17.6 °F 30.08 in Calm     33% 0 in meteobridge W/m2
23:49 45 °F 17.6 °F 30.08 in Calm     33% 0 in meteobridge W/m2
23:54 45 °F 17.6 °F 30.08 in Calm     33% 0 in meteobridge W/m2
23:59 45 °F 17.6 °F 30.08 in Calm     33% 0 in meteobridge W/m2
EllijayWeather
Compliments of Weather Underground - 2.5 mb